[[{"header":{"parameterUnit":"m.s-1","parameterCategory":1,"la1":30.2991,"la2":30.254,"lo1":-89.0895,"lo2":-89.0444,"dy":0.0017,"dx":0.0017,"nx":28,"ny":28,"refTime":"2024-07-10T21:00:00:Z","depth":0,"parameterNumber":2,"parameterNumberName":"U-component_of_WINDS"},"data":[0,0,0,0,0,0,0,0,0,0,0,0,0,0,0,0,0,0,0,0,0,0,0,0,0,0,0,0,0,0,0,0,0,0,0,0,0,0,0,0,0,0,0,0,0,0,0,0,0,0,0,0,0,0,0,0,0,0,2.7405,2.7406,0,2.7486,2.7487,2.7488,2.7453,2.7451,2.7449,2.7447,2.7529,2.7533,2.7537,0,0,0,0,0,0,0,0,0,0,0,0,0,2.7222,2.7225,2.7405,2.7406,2.7407,2.7486,2.7487,2.7488,2.7453,2.745,2.7448,2.7446,2.7528,2.7533,2.7538,0,0,0,0,0,0,0,0,0,0,0,0,0,2.7302,2.7226,2.7405,2.7399,2.74,2.7485,2.7487,2.7488,2.7453,2.745,2.7447,2.7445,2.7527,2.7532,2.7538,2.7635,0,0,2.7557,2.7559,0,0,0,0,0,0,0,0,2.7297,2.7308,2.7399,2.74,2.74,2.7456,2.7452,2.7537,2.7454,2.7433,2.7447,2.7443,2.7507,2.7515,2.7536,2.7639,2.7642,2.7557,2.7561,2.7564,2.7565,0,0,0,0,0,0,0,2.7292,2.7305,2.7437,2.74,2.7401,2.7393,2.7401,2.7468,2.7486,2.7435,2.7432,2.7442,2.7507,2.7531,2.7538,2.7643,2.7557,2.7563,2.7566,2.7569,2.7828,2.7831,0,0,0,0,0,0,2.7286,2.73,2.7435,2.744,2.734,2.7398,2.7408,2.7441,2.7485,2.7489,2.7445,2.744,2.7522,2.7531,2.7541,2.7656,2.7564,2.7569,2.7573,2.7825,2.7829,2.7833,0,0,0,0,0,0,2.7282,2.7298,2.7431,2.7369,2.7386,2.7405,2.7443,2.7444,2.7468,2.7493,2.7496,2.7465,2.752,2.7532,2.7612,2.7658,2.7572,2.7578,2.7821,2.7826,2.7831,2.7887,0,0,0,0,0,0,2.7277,2.7297,2.7334,2.737,2.7389,2.7501,2.7446,2.7448,2.7478,2.7473,2.7513,2.7517,2.7519,2.7603,2.7618,2.7665,2.7582,2.7817,2.7823,2.7829,2.7881,2.7894,2.7904,0,0,0,0,0,2.7271,2.7347,2.7336,2.7352,2.7435,2.7504,2.7514,2.7515,2.7482,2.7519,2.7535,2.7515,2.7651,2.7611,2.7628,2.7678,2.7814,2.7822,2.7829,2.7876,2.7891,2.7904,0,0,0,0,0,0,2.7316,2.7352,2.734,2.743,2.7464,2.7497,2.7544,2.7531,2.7574,2.7568,2.7567,2.7576,2.7658,2.7676,2.7631,2.7773,2.7728,2.7739,2.7758,2.7773,2.7784,2.7777,2.7587,0,0,0,0,0,2.7336,2.7388,2.7417,2.7494,2.7511,2.7525,2.7555,2.7552,2.7587,2.7601,2.7623,2.7658,2.7708,2.7742,2.779,2.7884,2.7892,2.7927,2.7938,2.7947,2.7956,2.8007,2.8023,2.7857,2.7857,2.7856,0,0,2.7379,2.7405,2.7438,2.7503,2.7529,2.7583,2.7537,2.7596,2.7636,2.7611,2.7686,2.7704,2.7742,2.783,2.7869,2.7847,2.8004,2.7957,2.7964,2.7968,2.8016,2.8032,2.8046,2.7862,2.7861,2.786,0,0,2.7484,2.7509,2.7575,2.7602,2.7642,2.7651,2.7667,2.7703,2.7713,2.7789,2.7771,2.7818,2.7905,2.7934,2.7959,2.8075,2.8058,2.8091,2.815,2.8199,2.8212,2.8224,2.8264,2.8279,2.81,2.8101,2.8101,0,2.7532,2.7612,2.7611,2.7672,2.7701,2.768,2.7747,2.7774,2.7827,2.7848,2.7823,2.7931,2.7956,2.8049,2.8077,2.8099,2.8117,2.8086,2.821,2.8222,2.8233,2.8271,2.8287,2.8104,2.8104,2.8103,2.8103,0,2.7668,2.7725,2.7774,2.7825,2.786,2.7924,2.7933,2.7969,2.7963,2.7975,2.8052,2.8081,2.8134,2.8157,2.8152,2.8249,2.8234,2.821,2.8164,2.8252,2.8288,2.8303,2.8109,2.8108,2.8107,2.8106,0,0,2.7803,2.7854,2.7872,2.7895,2.7937,2.7981,2.8044,2.8095,2.8125,2.8163,2.8215,2.829,2.8268,2.8297,2.8296,2.8339,2.8428,2.8309,2.831,2.8329,2.8536,2.8553,2.857,2.8418,2.8421,2.8423,2.8532,0,2.7911,2.802,2.8021,2.8122,2.8174,2.8155,2.8209,2.8241,2.8254,2.8299,2.8313,2.8365,2.8332,2.835,2.8392,2.8408,2.8469,2.8401,2.8465,2.8468,2.8455,2.8589,2.8607,2.8709,2.8546,2.8549,2.855,0,2.805,2.8092,2.8198,2.8232,2.8254,2.8303,2.835,2.8394,2.843,2.8436,2.8469,2.8461,2.8525,2.8478,2.8566,2.8519,2.8546,2.8558,2.8562,2.8567,2.8514,2.8596,2.8742,2.8756,2.8573,2.8571,2.857,0,2.8137,2.822,2.8293,2.8314,2.8356,2.8391,2.841,2.8443,2.8474,2.8516,2.8536,2.8585,2.8611,2.8649,2.8654,2.862,2.8742,2.8696,2.8748,2.8748,2.8774,2.8772,2.8924,2.8793,2.8793,2.8793,2.8793,0,2.8256,2.8321,2.8333,2.8378,2.845,2.8452,2.8523,2.854,2.8569,2.8617,2.8605,2.865,2.8655,2.8702,2.8707,2.8778,2.879,2.8796,2.8797,2.8797,2.8796,2.8813,2.8806,2.8797,2.8796,2.8795,2.8795,0,2.8364,2.8375,2.8454,2.8487,2.8497,2.8549,2.8578,2.8621,2.8632,2.8693,2.8708,2.8725,2.878,2.8789,2.8854,2.8857,2.8941,2.8935,2.8929,2.8928,2.8979,2.8974,2.9147,2.9169,2.9025,2.9027,2.9028,0,2.8439,2.8488,2.8527,2.8558,2.8579,2.863,2.8661,2.8665,2.8698,2.8742,2.878,2.8833,2.8875,2.8963,2.8982,2.9031,2.9025,2.9082,2.9032,2.9031,2.9024,2.9021,2.9025,2.9091,2.9093,2.9094,2.9095,0,2.857,2.8573,2.8618,2.8666,2.8703,2.8741,2.8777,2.8803,2.8811,2.8849,2.8904,2.8937,2.9003,2.9055,2.9104,2.9124,2.9111,2.9111,2.9126,2.9126,2.9119,2.9122,2.8954,2.9107,2.9106,2.9105,2.9104,2.9104,2.8663,2.8706,2.874,2.8791,2.8818,2.8851,2.8893,2.891,2.8956,2.9009,2.9008,2.9069,2.9103,2.9167,2.919,2.9238,2.9219,2.9241,2.9246,2.9251,2.9255,2.9113,2.9247,2.9246,2.9246,2.9246,2.9246,0,2.8792,2.8813,2.886,2.891,2.895,2.8935,2.8973,2.9008,2.9061,2.9094,2.9136,2.92,2.9251,2.9273,2.9323,2.9357,2.9352,2.937,2.9367,2.9371,2.9269,2.9251,2.9373,2.9373,2.9373,2.9372,2.9372,2.9372,2.8864,2.8935,2.8942,2.9027,2.9047,2.9106,2.9129,2.916,2.9186,2.9257,2.93,2.9314,2.9343,2.9395,2.9441,2.9446,2.9465,2.9485,2.9487,2.9391,2.9378,2.9366,2.9349,2.9489,2.9489,2.9585,2.9586,2.9587]},{"header":{"parameterUnit":"m.s-1","parameterCategory":1,"la1":30.2991,"la2":30.254,"lo1":-89.0895,"lo2":-89.0444,"dy":0.0017,"dx":0.0017,"nx":28,"ny":28,"refTime":"2024-07-10T21:00:00:Z","depth":0,"parameterNumber":3,"parameterNumberName":"V-component_of_WINDS"},"data":[0,0,0,0,0,0,0,0,0,0,0,0,0,0,0,0,0,0,0,0,0,0,0,0,0,0,0,0,0,0,0,0,0,0,0,0,0,0,0,0,0,0,0,0,0,0,0,0,0,0,0,0,0,0,0,0,0,0,-1.6912,-1.6913,0,-1.6994,-1.6995,-1.6996,-1.6998,-1.6997,-1.6996,-1.6995,-1.7079,-1.7082,-1.7085,0,0,0,0,0,0,0,0,0,0,0,0,0,-1.6758,-1.6761,-1.6912,-1.6913,-1.6914,-1.6994,-1.6995,-1.6996,-1.6998,-1.6997,-1.6996,-1.6994,-1.7078,-1.7082,-1.7085,0,0,0,0,0,0,0,0,0,0,0,0,0,-1.6831,-1.6762,-1.6912,-1.6925,-1.6927,-1.6993,-1.6995,-1.6996,-1.6998,-1.6997,-1.6995,-1.6994,-1.7077,-1.7081,-1.7086,-1.7145,0,0,-1.7101,-1.7103,0,0,0,0,0,0,0,0,-1.6827,-1.6837,-1.6922,-1.6924,-1.6926,-1.6984,-1.6971,-1.7046,-1.6999,-1.6971,-1.6995,-1.6993,-1.7049,-1.7056,-1.7074,-1.7149,-1.7153,-1.7101,-1.7104,-1.7106,-1.7107,0,0,0,0,0,0,0,-1.6822,-1.6833,-1.6944,-1.6923,-1.6926,-1.6927,-1.6935,-1.6986,-1.7017,-1.6973,-1.6974,-1.6983,-1.705,-1.707,-1.7076,-1.7154,-1.7101,-1.7105,-1.7108,-1.711,-1.7282,-1.7284,0,0,0,0,0,0,-1.6814,-1.6829,-1.6942,-1.6947,-1.6872,-1.6931,-1.694,-1.6967,-1.7017,-1.7023,-1.6985,-1.6983,-1.7062,-1.7071,-1.7079,-1.7152,-1.7106,-1.711,-1.7113,-1.728,-1.7283,-1.7284,0,0,0,0,0,0,-1.6811,-1.6824,-1.6938,-1.6888,-1.6903,-1.6935,-1.6965,-1.6969,-1.6989,-1.7025,-1.7031,-1.6999,-1.7061,-1.7073,-1.7129,-1.7155,-1.7112,-1.7117,-1.7278,-1.7281,-1.7283,-1.7298,0,0,0,0,0,0,-1.6806,-1.6823,-1.6846,-1.6888,-1.6905,-1.6987,-1.6966,-1.6972,-1.6998,-1.6997,-1.704,-1.7046,-1.7061,-1.7122,-1.7134,-1.7161,-1.712,-1.7276,-1.728,-1.7283,-1.7295,-1.73,-1.7305,0,0,0,0,0,-1.6801,-1.6847,-1.6847,-1.6861,-1.6934,-1.6988,-1.6998,-1.7014,-1.7,-1.7023,-1.7046,-1.7045,-1.715,-1.7128,-1.7141,-1.717,-1.7275,-1.7279,-1.7282,-1.7293,-1.7299,-1.7305,0,0,0,0,0,0,-1.6806,-1.6852,-1.6853,-1.6914,-1.6947,-1.6988,-1.7018,-1.702,-1.7058,-1.7055,-1.7074,-1.7084,-1.714,-1.716,-1.7134,-1.723,-1.7211,-1.7218,-1.7214,-1.7221,-1.7225,-1.7219,-1.7124,0,0,0,0,0,-1.6815,-1.6854,-1.6892,-1.6942,-1.6959,-1.6986,-1.701,-1.7019,-1.7054,-1.7068,-1.7095,-1.7129,-1.717,-1.7197,-1.7236,-1.7298,-1.7308,-1.7325,-1.733,-1.7333,-1.7339,-1.7373,-1.7381,-1.7297,-1.7297,-1.7297,0,0,-1.6832,-1.6862,-1.6886,-1.6944,-1.6971,-1.7012,-1.6997,-1.7041,-1.7071,-1.7075,-1.713,-1.7151,-1.719,-1.725,-1.7277,-1.7269,-1.7364,-1.7338,-1.7341,-1.7345,-1.7378,-1.7386,-1.7393,-1.73,-1.7299,-1.7299,0,0,-1.6884,-1.6911,-1.6956,-1.6983,-1.7023,-1.7041,-1.7051,-1.7093,-1.7107,-1.7162,-1.7165,-1.7202,-1.7272,-1.73,-1.7323,-1.7386,-1.7387,-1.7399,-1.7424,-1.7458,-1.7464,-1.747,-1.7492,-1.75,-1.7404,-1.7404,-1.7404,0,-1.6901,-1.6962,-1.6978,-1.7022,-1.7047,-1.7052,-1.7098,-1.7123,-1.7175,-1.7192,-1.7182,-1.727,-1.7297,-1.7362,-1.7378,-1.7397,-1.7409,-1.7393,-1.7462,-1.7468,-1.7474,-1.7495,-1.7504,-1.7405,-1.7405,-1.7405,-1.7405,0,-1.698,-1.7023,-1.7054,-1.7103,-1.7132,-1.7176,-1.7199,-1.7227,-1.7234,-1.7253,-1.7309,-1.7341,-1.7387,-1.7404,-1.7411,-1.7471,-1.7464,-1.7458,-1.7439,-1.7483,-1.7503,-1.7511,-1.7407,-1.7406,-1.7406,-1.7406,0,0,-1.7038,-1.7095,-1.7107,-1.7129,-1.7174,-1.7207,-1.7252,-1.7297,-1.732,-1.7356,-1.7393,-1.7452,-1.7447,-1.7473,-1.7484,-1.7513,-1.7561,-1.7503,-1.7504,-1.7512,-1.7628,-1.7632,-1.7642,-1.7561,-1.7563,-1.7564,-1.7625,0,-1.7095,-1.7174,-1.719,-1.7258,-1.7297,-1.7303,-1.7342,-1.7374,-1.7392,-1.7429,-1.7449,-1.7491,-1.748,-1.7496,-1.7525,-1.7549,-1.7584,-1.7545,-1.7597,-1.7598,-1.7586,-1.7652,-1.7657,-1.7712,-1.7633,-1.7634,-1.7635,0,-1.7172,-1.7209,-1.7281,-1.7321,-1.7338,-1.7372,-1.7415,-1.7449,-1.7486,-1.7498,-1.7527,-1.7535,-1.7581,-1.7561,-1.7625,-1.7598,-1.7621,-1.7635,-1.7638,-1.7643,-1.7619,-1.7659,-1.773,-1.7738,-1.7648,-1.7647,-1.7646,0,-1.7206,-1.7274,-1.7326,-1.7345,-1.7393,-1.7417,-1.7438,-1.7473,-1.7499,-1.7536,-1.7553,-1.7596,-1.7619,-1.7651,-1.767,-1.7654,-1.7733,-1.7714,-1.7744,-1.7744,-1.776,-1.7759,-1.7836,-1.7776,-1.7776,-1.7775,-1.7775,0,-1.7267,-1.7311,-1.7342,-1.7374,-1.7423,-1.7441,-1.7489,-1.751,-1.7542,-1.7578,-1.7586,-1.7619,-1.7642,-1.768,-1.7695,-1.7746,-1.7757,-1.7767,-1.7771,-1.7766,-1.7765,-1.7781,-1.7777,-1.7778,-1.7777,-1.7777,-1.7776,0,-1.7314,-1.7336,-1.7393,-1.7433,-1.7445,-1.7479,-1.7514,-1.7546,-1.7564,-1.761,-1.7622,-1.7652,-1.7696,-1.7718,-1.7773,-1.7784,-1.7841,-1.7842,-1.7829,-1.783,-1.7858,-1.7855,-1.7948,-1.7961,-1.7892,-1.7893,-1.7893,0,-1.7351,-1.7385,-1.7429,-1.7454,-1.7476,-1.7515,-1.7542,-1.7561,-1.7588,-1.7633,-1.7659,-1.7703,-1.774,-1.781,-1.7837,-1.7879,-1.7881,-1.7911,-1.7888,-1.7882,-1.7881,-1.7879,-1.7882,-1.7915,-1.7916,-1.7916,-1.7917,0,-1.7416,-1.7425,-1.7463,-1.7504,-1.7536,-1.7569,-1.7603,-1.7623,-1.7647,-1.7678,-1.7723,-1.7751,-1.7807,-1.7852,-1.7896,-1.7918,-1.7922,-1.7924,-1.7933,-1.7928,-1.7919,-1.7924,-1.7839,-1.7921,-1.7921,-1.7921,-1.792,-1.792,-1.7459,-1.7489,-1.7525,-1.7566,-1.7593,-1.7624,-1.7656,-1.7678,-1.7716,-1.7763,-1.7773,-1.782,-1.7856,-1.7916,-1.794,-1.7977,-1.7971,-1.7984,-1.7988,-1.799,-1.7992,-1.7913,-1.7986,-1.7986,-1.7985,-1.7985,-1.7985,0,-1.7523,-1.7546,-1.7585,-1.7631,-1.7664,-1.7664,-1.7701,-1.7728,-1.777,-1.7803,-1.7839,-1.7891,-1.7934,-1.7964,-1.8008,-1.8032,-1.8035,-1.8043,-1.8041,-1.8046,-1.7995,-1.7983,-1.804,-1.804,-1.804,-1.804,-1.804,-1.804,-1.756,-1.7611,-1.7625,-1.7689,-1.7713,-1.7759,-1.778,-1.7809,-1.7835,-1.7893,-1.7928,-1.7947,-1.798,-1.8026,-1.8065,-1.8073,-1.8088,-1.8096,-1.8104,-1.8056,-1.805,-1.8044,-1.8033,-1.81,-1.81,-1.8152,-1.8153,-1.8153]}]]